Regional Weather Roundup
Issued by NWS Grand Forks, ND

Home | Current Version | Previous Version | Graphics & Text | Print | Product List | Glossary On
Versions: 1 2 3 4 5 6 7 8 9 10 11 12 13 14 15 16 17 18 19 20 21 22 23 24 25 26 27 28 29 30 31 32 33 34 35 36 37 38 39 40 41 42 43 44 45 46 47 48 49 50
000
ASUS43 KFGF 301710
RWRFGF
PRAIRIE TO PINES  WEATHER ROUNDUP
NATIONAL WEATHER SERVICE EASTERN NORTH DAKOTA/GRAND FORKS ND
1200 PM CDT FRI SEP 30 2016

 **SATELLITE DATA USED TO AUGMENT SKY COVER AT AUTOMATED STATIONS**
 *****  WEATHER ACROSS EASTERN NORTH DAKOTA  *****

CITY           SKY/WX    TMP DP  RH WIND       PRES   REMARKS
GRAND FORKS    PTSUNNY   63  51  65 S15       30.29F
GRAND FRKS AFB PTSUNNY   62  51  65 S14       30.28F
GRAND FRKS NWS   N/A     61 N/A N/A S9          N/A
DEVILS LAKE    CLOUDY    59  51  75 SE15G22   30.23F
FARGO          SUNNY     66  51  58 SE14      30.30F
WAHPETON ARPT  SUNNY     63  52  67 SE12      30.32F
$$

 ***** WEATHER ACROSS CENTRAL AND WESTERN NORTH DAKOTA  *****

CITY           SKY/WX    TMP DP  RH WIND       PRES   REMARKS
BISMARCK       LGT RAIN  64  48  56 S20       30.15F
MINOT          CLOUDY    61  48  62 SE13      30.09S
JAMESTOWN      MOSUNNY   62  50  64 S20G26    30.24F
MINOT AFB      CLOUDY    60  48  64 S14       30.08S
GARRISON         N/A     59  48  67 S12       30.10R
WILLISTON      CLOUDY    62  48  60 SE10      30.02F
DICKINSON      CLOUDY    58  44  60 S15       30.06R
HETTINGER      CLOUDY    60  43  53 SE14      30.10S
$$

 *****  OTHER AIRPORT OBSERVATIONS IN OUR AREA  *****

CITY           SKY/WX    TMP DP  RH WIND       PRES   REMARKS
WALHALLA       FAIR      59  55  88 SE17      30.26F
GRAFTON AIRPOR FAIR      61  54  77 S13       30.30F
VALLEY CITY AR FAIR      63  50  63 S13G18    30.29F
CANDO          FAIR      59  50  72 SE22      30.23F
CAVALIER APRT  FAIR      59  50  72 S12       30.28F
GWINNER        FAIR      68  48  49 SE16      30.28F
SHEYENNE NWR     N/A     65  50  59 S12       29.95
ROLLA          FAIR      59  48  67 S15G25    30.19F
 ***** THE ABOVE OBSERVATIONS ARE NON NWS ARE NOT QUALITY
       CONTROLLED AND MAY MIS-REPORT RAIN FOR SNOW...
$$

  *****  WEATHER ACROSS NORTHERN MINNESOTA  *****

CITY           SKY/WX    TMP DP  RH WIND       PRES   REMARKS
FLAG ISLAND    CLOUDY    57  50  77 SE5       30.35F
WARROAD        MOSUNNY   63  54  72 S9        30.35F
ROSEAU         MOSUNNY   61  54  77 S9        30.34F HAZE
HALLOCK        SUNNY     63  54  72 S15       30.29F
THF RVR FALLS  MOSUNNY   57  51  80 SE13      30.34F
BAUDETTE       CLOUDY    50  46  86 SE13      30.39F
WASKISH        CLOUDY    52  52 100 SE8       30.39F
CROOKSTON      SUNNY     63  52  67 S14       30.31F
GREENBUSH NDAW   N/A     63  54  72 SE8         N/A
$$
  *****  WEATHER ACROSS CENTRAL AND WEST MINNESOTA  *****

CITY           SKY/WX    TMP DP  RH WIND       PRES   REMARKS
FOSSTON        CLOUDY    59  54  82 SE5       30.36S
BEMIDJI        CLOUDY    52  52  98 SE7       30.38F
PARK RAPIDS    CLOUDY    56  50  80 SE7       30.37F
ELBOW LAKE     FAIR      62  54  75 SE5       30.34F
WADENA         CLOUDY    52  52 100 SE6       30.37F
DETROIT LAKES  CLOUDY    54  50  87 SE12      30.36F
MOORHEAD       SUNNY     64  52  63 SE13      30.32F
FERGUS FALLS   MOSUNNY   61  54  77 SE9       30.36F
MORRIS MN      CLOUDY    61  54  77 SE9       30.34S
STAPLES        CLOUDY    52  52 100 SE8       30.39S
$$
  *****  WEATHER ELSEWHERE ACROSS MINNESOTA  *****

CITY           SKY/WX    TMP DP  RH WIND       PRES   REMARKS
DULUTH         CLOUDY    55  50  83 E8        30.42F
INTRNTL FALLS  CLOUDY    50  49  96 SE6       30.42F
ELY            SUNNY     59  48  67 CALM      30.43F
CLOQUET        MOSUNNY   55  48  76 E7        30.42S
WHEATON        NOT AVBL
BRAINERD       MOSUNNY   56  50  80 NE8       30.40F
HIBBING        PTSUNNY   52  48  86 SE6       30.42F
ALEXANDRIA     CLOUDY    53  53 100 E9        30.38S
SAINT CLOUD    CLOUDY    55  53  93 VRB5      30.38F
MINNEAPOLIS    SUNNY     63  53  70 N8        30.35F
$$

  *****  WEATHER ACROSS SOUTH DAKOTA  *****

CITY           SKY/WX    TMP DP  RH WIND       PRES   REMARKS
SIOUX FALLS    MOSUNNY   67  52  58 SE7       30.30F
BROOKINGS      SUNNY     65  51  60 S12       30.30
WATERTOWN      MOSUNNY   64  48  56 S13       30.30F
HURON          MOSUNNY   65  47  52 S10       30.26F
SISSETON         N/A     64  52  64 SE12      30.29F
ABERDEEN       PTSUNNY   67  47  48 S16       30.26F
MITCHELL       SUNNY     69  46  43 S14       30.27F
PIERRE         PTSUNNY   65  47  52 SE23      30.15F
MOBRIDGE       MOSUNNY   67  47  48 S23G30    30.13F
RAPID CITY     PTSUNNY   62  45  53 S16       30.08S
$$

  *****  SOME WEATHER IN NEARBY STATES *****

CITY           SKY/WX    TMP DP  RH WIND       PRES   REMARKS
GLASGOW MT     CLOUDY    67  48  50 VRB3      29.96F
GREAT FALLS MT CLOUDY    67  47  48 W8        30.04R
CHEYENNE WY    LGT RAIN  59  52  77 CALM      30.29S
SCOTTSBLUFF NE MOSUNNY   61  44  53 VRB6      30.20F
OMAHA NE       MOSUNNY   69  51  52 CALM      30.28F
DES MOINES IA  CLOUDY    63  53  70 NE12      30.25F
DAVENPORT IA   CLOUDY    62  56  80 NE14      30.19F
CHICAGO IL     CLOUDY    63  60  90 NE14      30.14F
EAU CLAIRE WI  CLOUDY    65  51  60 NE9       30.32F
LA CROSSE WI   CLOUDY    67  55  65 E13G18    30.28F
$$

  *****  SOME NATIONAL WEATHER *****

CITY           SKY/WX    TMP DP  RH WIND       PRES   REMARKS
LA GUARDIA NY  LGT RAIN  63  59  87 NE22G30   30.28F FOG
RALEIGH NC     CLOUDY    79  72  79 SE13      30.03S
ATLANTA GA     MOSUNNY   70  49  47 VRB3      30.07S
NEW ORLEANS LA MOSUNNY   80  56  43 N13       30.13F
OKLAHOMA CITY  MOSUNNY   69  46  43 SE3       30.25F
ALBUQUERQUE NM MOSUNNY   64  54  69 S5        30.34F
SALT LAKE CITY PTSUNNY   69  50  50 S16       30.21S
LOS ANGELES CA MOSUNNY   76  63  64 W7        30.04S
BOISE ID       SUNNY     77  46  33 SE16      30.05F
SEATTLE WA     FOG       49  46  90 CALM      30.06R VSB 1/8
$$

*** WEATHER ACROSS MANITOBA...SASKATCHEWAN AND ONTARIO ***
                ***ONTARIO***

CITY           SKY/WX    TMP DP  RH WIND       PRES   REMARKS
GERALDTON      PTSUNNY   61  52  72 NE3       30.48F
THUNDER BAY    MOSUNNY   59  54  82 S3        30.45F
SIOUX LOOKOUT  MOSUNNY   61  50  67 S8        30.43F
TORONTO        PTSUNNY   63  50  63 E20G25    30.31F
BIG TROUT LK   SUNNY     61  48  63 S7        30.38F
PICKLE LAKE    CLOUDY    55  45  67 SW8       30.45F
DRYDEN         SUNNY     59  50  72 S9        30.41F
KENORA         PTSUNNY   57  48  72 S9        30.38F
$$
                *** MANITOBA***

CITY           SKY/WX    TMP DP  RH WIND       PRES   REMARKS
BRANDON        PTSUNNY   57  50  77 SE12      30.16F
DAUPHIN        SUNNY     54  48  82 E9        30.15S
ISLAND LAKE    MOSUNNY   61  52  72 SE6       30.30F
PILOT MOUND      N/A     63  50  63 SE22G29     N/A
THE PAS        MOSUNNY   61  50  67 SE14      30.10F
THOMPSON       CLOUDY    54  52  94 VRB3      30.22S
WINNIPEG       MOSUNNY   63  52  67 S15G22    30.29F
LYNN LAKE      CLOUDY    48  46  93 E9        30.21S
CHURCHILL      PTSUNNY   48  37  66 NE10      30.34R
$$
                ***SASKATCHEWAN***

CITY           SKY/WX    TMP DP  RH WIND       PRES   REMARKS
ESTEVAN        LGT RAIN  55  48  76 SE9       30.06R
KINDERSLEY     CLOUDY    48  46  93 N3        30.01R
LLOYDMINSTER   PTSUNNY   54  46  76 NE8       30.04S
PRINCE ALBERT  MOSUNNY   57  48  72 E7        30.02F
REGINA         PTSUNNY   63  48  59 SE15      30.00F
YORKTON        SUNNY     61  48  63 SE13G20   30.06F
N. BATTLEFORD  CLOUDY    54  50  87 E9        30.03S
LA RONGE       CLOUDY    54  50  87 NE12G17   30.11F
SASKATOON      MOSUNNY   59  48  67 CALM      30.00S
SWIFT CURRENT  SUNNY     63  50  63 NW5       29.97S
$$
NOTE: THESE ARE AUTOMATED STATIONS WITH LIMITED QUALITY CONTROL
      "FAIR" INDICATES FEW OR NO CLOUDS BELOW 12,000 FEET WITH NO
      SIGNIFICANT WEATHER AND/OR OBSTRUCTIONS TO VISIBILITY.
      SKY/WX - SKY CONDITION AND SIGNIFICANT WEATHER.
      TMP - AIR TEMPERATURE.    DP   - DEWPOINT TEMPERATURE.
      RH  - RELATIVE HUMIDITY.  PRES - PRESSURE.
      HX  - HEAT INDEX.         WCI  - WIND CHILL INDEX.
$




USA.gov is the U.S. government's official web portal to all federal, state and local government web resources and services.